Location: Moscow
(55.7500°N, 37.5830°E)
Time: 02:21:55
(UTC+03:00)

Vanguard 3 - Pass Details

Date: 30 November 2021
Orbit: 508 x 3260 km, 33.3° (Epoch: 17 January)

Event Time Altitude Azimuth Distance (km) Brightness Sun altitude
Rises 10:19:17 0° 262° (W) 6,319 11.5 8.5°
Reaches altitude 10° 10:26:54 10° 241° (WSW) 4,632 11.1 9.0°
Maximum altitude 10:31:44 13° 218° (SW) 3,871 11.1 9.3°
Drops below altitude 10° 10:35:44 10° 193° (SSW) 3,675 11.5 9.5°
Sets 10:40:20 0° 167° (SSE) 4,099 12.8 9.8°
